| time (UTC) | temp C | wind direction | speed KPH | gust KPH | rain 1hr cm | rain 24hr cm | rain mn cm | humidity % | barometer mb |
| 20260903211532 | 20 | 32 | 0.0 | 6.4 | 0.00 | 0.86 | 0.00 | 46 | 1012.0 |
| 20260903210030 | 20 | 294 | 4.8 | 8.0 | 0.00 | 0.86 | 0.00 | 42 | 1012.2 |
| 20260903204530 | 20 | 237 | 6.4 | 12.9 | 0.00 | 0.86 | 0.00 | 42 | 1012.3 |
| 20260903203031 | 21 | 288 | 4.8 | 12.9 | 0.00 | 0.86 | 0.00 | 42 | 1012.4 |
| 20260903201529 | 21 | 65 | 0.0 | 1.6 | 0.00 | 0.86 | 0.00 | 50 | 1012.8 |
| 20260903193030 | 16 | 45 | 0.0 | 0.0 | 0.00 | 0.86 | 0.00 | 72 | 1014.0 |
| 20260903191531 | 16 | 45 | 0.0 | 0.0 | 0.00 | 0.86 | 0.00 | 73 | 1014.1 |
| 20260903190031 | 16 | 45 | 0.0 | 0.0 | 0.00 | 0.86 | 0.00 | 73 | 1014.1 |
| 20260903184607 | 15 | 45 | 0.0 | 0.0 | 0.00 | 0.86 | 0.00 | 75 | 1014.2 |
| 20260903183029 | 15 | 51 | 0.0 | 1.6 | 0.00 | 0.86 | 0.00 | 76 | 1014.2 |
| 20260903181534 | 15 | 57 | 0.0 | 0.0 | 0.00 | 0.86 | 0.00 | 78 | 1014.2 |
| 20260903180032 | 14 | 22 | 0.0 | 1.6 | 0.00 | 0.86 | 0.00 | 80 | 1014.1 |
| 20260903174528 | 13 | 14 | 0.0 | 1.6 | 0.00 | 0.86 | 0.00 | 80 | 1014.1 |
| 20260903173031 | 13 | 35 | 0.0 | 3.2 | 0.00 | 0.86 | 0.00 | 83 | 1014.1 |
| 20260903171532 | 12 | 34 | 0.0 | 3.2 | 0.00 | 0.86 | 0.00 | 83 | 1014.1 |
| 20260903170030 | 12 | 13 | 0.0 | 3.2 | 0.00 | 0.86 | 0.00 | 83 | 1014.3 |
| 20260903164529 | 12 | 23 | 0.0 | 4.8 | 0.00 | 0.86 | 0.00 | 83 | 1014.3 |
| 20260903163032 | 12 | 21 | 0.0 | 4.8 | 0.00 | 0.86 | 0.00 | 82 | 1014.2 |
| 20260903161531 | 12 | 22 | 0.0 | 4.8 | 0.00 | 0.86 | 0.00 | 82 | 1014.3 |
| 20260903154530 | 11 | 180 | 0.0 | 0.0 | 0.00 | 0.86 | 0.00 | 87 | 1014.2 |
| 20260903151604 | 9 | 180 | 0.0 | 1.6 | 0.00 | 0.86 | 0.00 | 90 | 1014.2 |
| 20260903150030 | 9 | 263 | 0.0 | 3.2 | 0.00 | 0.86 | 0.00 | 91 | 1014.2 |
| 20260903143031 | 7 | 345 | 0.0 | 1.6 | 0.00 | 0.86 | 0.00 | 92 | 1014.2 |
| 20260903141605 | 7 | 16 | 0.0 | 3.2 | 0.00 | 0.86 | 0.00 | 92 | 1014.1 |
| 20260903140032 | 7 | 225 | 1.6 | 4.8 | 0.00 | 0.86 | 0.00 | 92 | 1014.0 |
| 20260903134607 | 7 | 225 | 1.6 | 3.2 | 0.00 | 0.86 | 0.00 | 92 | 1013.9 |
| 20260903133031 | 7 | 225 | 1.6 | 4.8 | 0.00 | 0.86 | 0.00 | 93 | 1013.9 |
| 20260903131530 | 7 | 225 | 1.6 | 4.8 | 0.00 | 0.86 | 0.00 | 94 | 1013.9 |
| 20260903130030 | 6 | 225 | 0.0 | 3.2 | 0.00 | 0.86 | 0.00 | 93 | 1013.8 |
| 20260903124529 | 6 | 225 | 0.0 | 4.8 | 0.00 | 0.86 | 0.00 | 93 | 1013.8 |
| 20260903121529 | 6 | 236 | 1.6 | 6.4 | 0.00 | 0.86 | 0.00 | 93 | 1013.7 |
| 20260903120030 | 6 | 271 | 0.0 | 4.8 | 0.00 | 0.86 | 0.00 | 93 | 1013.7 |
| 20260903114607 | 6 | 235 | 0.0 | 1.6 | 0.00 | 0.86 | 0.00 | 93 | 1013.6 |
| 20260903113041 | 6 | 225 | 0.0 | 3.2 | 0.00 | 0.86 | 0.00 | 93 | 1013.6 |
| 20260903111531 | 6 | 225 | 0.0 | 3.2 | 0.00 | 0.86 | 0.00 | 92 | 1013.5 |
| 20260903104647 | 8 | 247 | 0.0 | 3.2 | 0.00 | 0.86 | 0.00 | 90 | 1013.3 |
| 20260903103028 | 8 | 303 | 0.0 | 6.4 | 0.00 | 0.86 | 0.00 | 90 | 1013.4 |
| 20260903101530 | 7 | 250 | 0.0 | 3.2 | 0.00 | 0.86 | 0.00 | 92 | 1013.3 |
| 20260903100108 | 7 | 266 | 0.0 | 3.2 | 0.00 | 0.86 | 0.00 | 92 | 1013.3 |
| 20260903094606 | 8 | 247 | 0.0 | 3.2 | 0.00 | 0.86 | 0.00 | 92 | 1013.1 |
| 20260903093036 | 8 | 226 | 0.0 | 3.2 | 0.00 | 0.86 | 0.00 | 92 | 1013.2 |
| 20260903091529 | 8 | 225 | 1.6 | 3.2 | 0.00 | 0.86 | 0.00 | 93 | 1013.2 |
| 20260903090031 | 8 | 239 | 1.6 | 4.8 | 0.00 | 0.86 | 0.00 | 93 | 1013.2 |
| 20260903084528 | 8 | 225 | 1.6 | 4.8 | 0.00 | 0.86 | 0.00 | 94 | 1013.0 |
| 20260903083032 | 8 | 254 | 1.6 | 4.8 | 0.00 | 0.86 | 0.00 | 94 | 1012.9 |
| 20260903081530 | 8 | 232 | 1.6 | 3.2 | 0.00 | 0.86 | 0.00 | 95 | 1012.9 |
| 20260903080030 | 9 | 239 | 1.6 | 6.4 | 0.00 | 0.86 | 0.00 | 95 | 1012.9 |
| 20260903074532 | 10 | 234 | 1.6 | 6.4 | 0.00 | 0.86 | 0.00 | 96 | 1012.8 |
| 20260903071530 | 10 | 267 | 0.0 | 1.6 | 0.00 | 0.86 | 0.00 | 95 | 1012.5 |
| 20260903070029 | 10 | 264 | 0.0 | 8.0 | 0.00 | 0.86 | 0.00 | 95 | 1012.4 |
| 20260903064530 | 10 | 243 | 0.0 | 1.6 | 0.00 | 0.86 | 0.86 | 95 | 1012.2 |
| 20260903063028 | 10 | 202 | 0.0 | 0.0 | 0.00 | 0.86 | 0.86 | 94 | 1012.4 |
| 20260903061531 | 10 | 202 | 0.0 | 0.0 | 0.00 | 0.86 | 0.86 | 94 | 1012.3 |
| 20260903060031 | 11 | 202 | 0.0 | 0.0 | 0.00 | 0.86 | 0.86 | 94 | 1012.3 |
| 20260903054531 | 12 | 202 | 0.0 | 0.0 | 0.00 | 0.86 | 0.86 | 95 | 1012.5 |
| 20260903053029 | 12 | 202 | 0.0 | 1.6 | 0.00 | 0.86 | 0.86 | 94 | 1012.6 |
| 20260903051532 | 12 | 73 | 0.0 | 3.2 | 0.00 | 0.86 | 0.86 | 94 | 1012.4 |
| 20260903050030 | 12 | 67 | 0.0 | 0.0 | 0.03 | 0.86 | 0.86 | 94 | 1012.1 |
| 20260903044530 | 12 | 67 | 0.0 | 0.0 | 0.08 | 0.86 | 0.86 | 93 | 1012.2 |
| 20260903043030 | 12 | 67 | 0.0 | 0.0 | 0.15 | 0.86 | 0.86 | 93 | 1012.2 |
| 20260903041531 | 12 | 67 | 0.0 | 0.0 | 0.41 | 0.86 | 0.84 | 92 | 1011.9 |
| 20260903034530 | 12 | 23 | 0.0 | 4.8 | 0.71 | 0.79 | 0.71 | 89 | 1011.6 |
| 20260903033031 | 12 | 9 | 0.0 | 6.4 | 0.66 | 0.71 | 0.46 | 86 | 1011.5 |
| 20260903031531 | 14 | 356 | 3.2 | 11.3 | 0.41 | 0.46 | 0.05 | 82 | 1011.4 |
| 20260903024530 | 15 | 328 | 0.0 | 4.8 | 0.00 | 0.05 | 0.05 | 75 | 1010.3 |
| 20260903023029 | 15 | 292 | 1.6 | 4.8 | 0.00 | 0.05 | 0.05 | 75 | 1010.2 |
| 20260903020033 | -17 | 0 | 0.0 | 0.0 | 0.00 | 0.05 | 0.00 | 100 | |
| 20260903014531 | -17 | 0 | 0.0 | 0.0 | 0.00 | 0.05 | 0.00 | 100 | |
| 20260903011533 | 16 | 260 | 1.6 | 6.4 | 0.00 | 0.05 | 0.05 | 72 | 1010.3 |
| 20260903010147 | 16 | 283 | 3.2 | 8.0 | 0.00 | 0.05 | 0.05 | 68 | 1010.4 |
| 20260903004532 | 16 | 285 | 3.2 | 6.4 | 0.00 | 0.05 | 0.05 | 68 | 1010.5 |
| 20260903003032 | 16 | 288 | 3.2 | 8.0 | 0.00 | 0.05 | 0.05 | 67 | 1010.4 |
| 20260903001529 | 16 | 295 | 3.2 | 9.7 | 0.00 | 0.05 | 0.05 | 66 | 1010.5 |
| 20260903000031 | 16 | 305 | 4.8 | 12.9 | 0.00 | 0.05 | 0.05 | 65 | 1010.5 |
| 20260902234533 | 17 | 316 | 4.8 | 8.0 | 0.00 | 0.05 | 0.05 | 65 | 1010.6 |
| 20260902233039 | 17 | 308 | 3.2 | 6.4 | 0.00 | 0.05 | 0.05 | 65 | 1010.6 |
| 20260902231606 | 17 | 303 | 4.8 | 12.9 | 0.05 | 0.05 | 0.05 | 64 | 1010.6 |
| 20260902230038 | 16 | 281 | 3.2 | 8.0 | 0.05 | 0.05 | 0.05 | 67 | 1010.5 |
| 20260902224528 | 16 | 300 | 1.6 | 3.2 | 0.05 | 0.05 | 0.05 | 70 | 1010.5 |
| 20260902223031 | 16 | 229 | 0.0 | 0.0 | 0.05 | 0.05 | 0.00 | 74 | 1010.5 |
| 20260902221532 | -17 | 0 | 0.0 | 0.0 | 0.00 | 0.00 | 0.00 | 100 | |
| 20260902214533 | -17 | 0 | 0.0 | 0.0 | 0.00 | 0.00 | 0.00 | 100 |